GFSSGP_2pvu_pres_003.txt.gz
Presure
180 172 99 118 110 135 109 157 76 104 115 125 110 107 115 116 122 157 130 133 115 109 118 103 111 121 121 120 114 137 133 121 133 123 141 172 129 151 136 167 172 205 267 263 263 257 304 300 286
175 108 153 129 130 132 119 108 111 128 118 123 96 115 127 104 134 123 138 113 101 124 115 111 124 122 114 122 109 126 149 121 119 154 131 121 128 173 170 175 203 243 236 243 235 237 243 245 256
181 165 175 151 125 107 100 116 117 106 162 117 111 136 112 116 118 110 117 108 120 119 109 125 119 116 111 111 152 140 116 126 172 126 127 151 166 166 171 178 232 230 211 224 210 216 219 228 233
150 179 110 117 173 161 93 116 153 132 98 128 120 129 150 121 116 120 116 121 118 111 124 123 151 125 124 132 133 127 120 122 161 164 163 130 161 170 182 224 227 231 208 219 212 201 192 201 204
183 180 150 135 135 174 146 162 162 124 164 112 124 160 111 119 121 124 119 117 119 123 121 113 123 128 124 137 126 122 128 127 154 128 146 167 172 172 207 223 226 209 204 206 198 184 203 207 195
171 140 162 175 135 128 166 145 138 172 129 121 115 119 171 119 120 111 116 121 126 158 115 118 144 161 122 123 125 142 138 145 155 183 162 165 206 213 211 217 206 204 196 190 188 190 189 189 200
124 137 138 128 135 134 131 130 143 132 176 137 107 123 163 125 126 116 120 127 120 116 122 131 146 121 140 158 128 161 127 161 173 166 170 169 198 211 206 205 208 200 191 185 188 193 187 184 188
122 124 113 140 135 183 124 126 130 123 128 127 133 134 119 112 117 125 125 118 111 149 135 174 124 150 125 163 133 142 173 159 161 171 175 218 211 214 216 198 193 194 187 190 183 183 188 180 174
127 138 155 172 140 161 131 140 115 123 162 118 118 125 122 125 125 129 139 112 127 147 135 161 119 135 148 170 163 169 162 163 169 183 211 207 219 207 213 198 197 194 193 193 195 195 184 179 185
117 138 184 141 129 127 106 118 119 155 128 165 126 153 125 125 130 133 118 131 174 127 129 124 161 143 146 129 156 174 180 171 228 214 198 215 214 200 213 195 198 200 164 175 165 192 194 189 193
135 145 142 156 189 130 134 136 134 134 126 191 127 116 127 126 118 131 176 157 124 128 158 171 157 162 133 160 178 173 179 224 184 213 209 206 193 184 197 200 192 197 197 186 201 181 201 195 180
126 230 144 141 177 176 141 125 118 119 129 126 131 182 178 178 179 171 103 128 178 139 129 130 162 161 170 174 172 173 228 124 216 178 183 204 205 205 201 225 205 204 202 198 197 199 196 196 192
96 111 132 102 125 116 126 130 131 133 156 184 183 186 172 164 123 121 178 147 131 131 131 175 156 166 193 210 201 181 229 217 178 197 203 207 208 202 157 177 180 189 187 191 172 170 187 192 189
231 104 231 245 221 123 136 120 120 185 115 183 189 188 187 125 159 164 129 154 128 144 163 159 176 162 181 168 194 221 210 208 188 227 221 228 192 186 189 184 184 189 191 194 161 185 170 183 182
233 244 246 156 239 230 221 214 203 196 191 189 189 192 162 180 130 128 127 127 166 152 171 211 170 181 216 215 220 201 204 200 190 211 198 200 197 190 104 187 171 193 191 181 180 189 196 208 212
230 229 226 226 232 243 239 155 229 222 199 127 138 140 131 143 124 131 182 202 140 173 231 191 211 215 196 206 234 212 213 195 212 205 194 188 170 186 188 194 187 183 177 187 177 192 191 206 195
218 229 201 186 230 241 244 249 262 126 127 137 134 135 230 180 214 198 131 186 214 204 228 195 229 224 179 202 210 202 202 213 204 190 189 195 190 193 188 184 185 180 193 163 184 199 202 203 200
236 238 239 241 276 243 158 144 137 130 131 134 203 230 248 159 128 134 208 235 222 225 230 226 220 226 225 211 210 218 224 195 187 190 175 186 193 182 185 192 187 190 199 192 197 188 197 202 203
229 252 250 242 148 142 184 127 132 222 221 222 219 130 127 133 219 230 227 215 233 224 213 193 207 202 205 214 202 194 182 186 184 186 183 178 183 193 189 192 201 188 186 200 201 202 102 195 196
239 236 248 231 132 132 189 228 201 220 236 150 130 132 156 229 227 228 216 231 224 203 215 203 205 206 209 215 191 180 180 183 187 194 188 193 195 191 192 192 197 120 142 184 138 195 196 200 204
190 125 188 189 146 138 168 259 180 131 174 130 128 244 241 231 214 228 227 213 213 208 206 207 204 204 204 191 184 181 184 189 194 192 191 191 192 184 194 197 194 191 158 202 198 195 204 207 197
235 167 134 145 146 142 168 127 198 151 137 217 212 212 223 220 220 211 208 203 201 198 194 203 204 191 180 173 182 192 193 195 189 183 183 186 188 194 142 140 199 206 206 213 209 127 110 117 116
157 146 224 146 216 194 218 233 216 226 219 207 221 242 212 200 202 192 184 192 200 199 201 198 189 184 185 183 192 194 192 192 182 181 191 182 198 193 189 204 200 203 206 215 215 220 227 233 237
135 232 231 224 221 226 156 216 240 235 223 206 213 214 209 198 148 192 190 191 191 194 193 183 188 183 190 190 190 193 186 180 186 187 190 193 196 196 206 207 199 213 222 230 234 238 236 243 237
246 253 249 231 227 228 241 252 257 257 230 225 205 199 195 195 193 195 193 191 186 184 185 192 192 201 191 187 187 184 182 190 184 196 196 187 202 206 209 210 217 220 230 240 240 248 255 268 285
237 235 234 236 235 235 237 227 241 233 238 205 116 191 189 182 195 193 192 184 186 193 194 194 182 188 185 183 183 187 189 198 196 196 203 207 197 204 207 225 227 245 251 259 256 297 294 324 288
207 209 205 206 203 204 201 197 196 206 204 198 197 193 191 189 192 190 191 189 189 197 189 187 185 183 183 182 187 109 110 189 197 201 198 205 213 226 233 240 245 254 257 276 281 348 335 327 322
205 197 197 199 200 201 203 198 202 196 195 194 198 200 197 197 193 191 195 205 190 184 186 184 186 186 184 187 103 99 110 204 196 196 224 232 222 233 246 247 289 301 320 355 346 340 335 334 382
194 198 195 189 192 205 207 211 207 201 199 189 185 185 190 189 202 201 191 187 187 178 178 184 183 185 183 182 95 185 201 199 209 209 228 225 239 254 288 294 283 357 346 342 339 416 440 430 420
200 202 200 199 192 195 194 194 192 187 187 191 196 194 203 212 184 190 191 174 171 177 185 189 183 190 193 196 192 200 199 212 213 223 240 253 253 291 301 353 348 337 457 449 430 417 404 399 397

GFSSGP_2pvu_pres_006.txt.gz
Presure
133 127 143 123 117 126 117 163 105 118 109 108 117 105 124 106 107 118 121 110 116 111 111 115 119 142 112 146 136 112 162 119 140 129 157 156 125 118 144 128 144 184 176 173 245 240 216 217 236
120 141 123 130 98 146 153 168 148 113 143 115 102 116 125 136 122 121 127 121 136 113 118 122 118 110 137 120 107 131 111 150 136 153 142 118 137 125 173 170 175 170 171 238 240 220 206 213 212
123 154 129 129 158 158 165 158 148 120 122 145 163 109 130 128 114 157 129 126 137 160 153 118 112 126 106 125 163 140 158 137 126 121 130 150 152 166 168 172 172 173 246 239 223 218 210 211 194
125 131 132 123 127 140 185 76 198 175 112 123 165 101 167 133 119 127 112 135 134 118 117 126 115 139 118 144 110 167 159 118 133 123 142 165 177 126 185 175 175 178 216 232 212 209 199 200 197
135 185 126 149 139 183 178 199 181 176 158 168 130 132 137 123 169 109 112 119 154 127 165 115 126 112 118 117 139 144 119 125 170 170 153 126 176 170 173 177 173 210 217 219 205 203 194 190 190
123 139 212 124 133 128 151 150 134 130 125 148 167 168 162 145 160 138 120 120 117 119 122 126 115 119 120 135 132 125 125 170 171 164 124 167 171 171 161 175 208 209 215 217 205 194 195 193 184
133 140 117 112 86 121 114 124 105 168 159 130 127 127 124 127 130 125 143 133 123 125 133 127 118 143 181 126 122 126 159 148 165 146 190 170 173 160 177 226 212 213 200 196 194 198 194 191 197
245 135 204 80 116 114 156 110 191 153 158 127 131 125 149 120 139 120 125 126 173 128 115 118 142 152 123 126 172 174 173 126 147 183 182 171 161 176 167 188 216 174 206 206 204 196 198 180 180
122 184 125 124 122 123 197 134 170 132 150 182 171 116 117 164 126 161 127 128 131 120 115 151 129 129 165 176 170 183 125 180 147 169 167 226 166 191 172 207 171 203 208 206 197 199 201 201 186
176 110 111 127 139 173 124 154 132 126 125 119 116 133 127 164 117 163 127 125 178 185 176 123 152 165 177 168 140 142 172 139 185 180 177 200 178 198 206 205 213 205 207 206 204 214 204 204 193
212 115 134 139 222 98 134 131 195 173 122 125 130 132 118 126 185 159 138 192 170 173 119 176 179 132 128 126 176 190 134 179 180 181 168 167 227 214 201 199 204 217 211 194 186 189 194 195 190
216 132 133 234 103 219 133 192 148 150 187 191 123 127 133 128 127 139 174 175 167 123 127 166 126 127 135 169 167 137 180 173 189 185 227 220 211 194 204 186 233 200 196 196 193 185 176 189 191
173 227 244 196 178 232 103 119 136 117 147 125 122 126 125 158 120 172 167 123 124 180 131 126 126 172 171 191 173 179 191 188 220 207 202 194 205 207 195 184 203 198 185 144 182 183 177 190 185
160 133 162 161 169 148 120 153 205 150 172 135 119 165 142 185 188 145 123 177 133 148 126 162 195 173 162 166 190 186 201 223 218 217 212 215 203 208 186 190 196 186 183 189 187 183 176 176 178
124 124 226 212 220 139 226 234 235 140 209 181 201 221 200 191 129 126 132 136 128 181 184 182 144 206 181 235 221 205 226 235 191 202 214 226 206 200 217 203 184 192 183 189 185 179 185 168 181
120 123 182 237 235 243 243 237 235 237 237 232 227 221 216 136 135 132 132 140 190 191 132 204 191 230 224 218 215 227 193 215 205 208 196 192 187 206 203 188 192 191 186 173 191 193 189 193 192
123 172 226 228 221 230 235 234 234 185 223 203 233 189 130 129 143 249 184 172 128 134 187 244 208 226 222 219 216 234 228 206 211 211 211 221 209 193 183 188 181 182 182 190 187 178 185 169 196
222 139 221 222 223 227 226 226 227 235 233 225 133 128 189 256 241 211 135 135 230 222 242 210 210 209 208 221 204 198 205 212 209 203 216 202 190 179 189 186 196 191 188 183 131 184 196 193 183
227 225 226 227 231 237 237 238 238 232 250 153 139 238 252 223 131 162 162 217 219 216 218 210 205 206 222 203 209 201 203 207 206 203 204 181 183 189 195 197 186 183 184 185 188 196 184 201 171
227 232 242 245 243 252 241 237 210 153 229 205 158 199 133 213 132 226 218 234 231 212 221 211 225 216 206 210 204 193 200 203 147 182 186 187 191 194 196 184 189 194 193 198 199 121 171 194 203
236 233 231 229 227 217 127 212 177 148 229 148 132 143 163 230 210 212 210 228 236 232 226 127 201 206 199 195 195 197 200 195 190 190 194 192 197 200 189 196 199 198 198 194 198 202 208 208 213
224 223 227 236 248 247 160 142 143 207 177 134 132 170 210 220 224 231 210 216 218 215 205 202 190 193 200 203 201 194 193 187 193 189 192 186 190 192 194 204 207 195 204 210 207 209 222 234 232
217 226 220 134 140 146 180 200 215 138 215 215 219 224 223 221 209 213 229 213 199 192 191 197 197 201 192 190 197 193 196 191 190 195 190 194 182 194 205 197 204 211 209 214 218 216 222 222 235
232 166 187 173 220 232 226 224 224 217 209 211 211 214 227 222 217 218 212 192 191 194 195 200 195 189 190 189 195 196 189 187 188 191 188 194 169 112 194 206 207 208 207 216 217 224 236 251 262
244 241 249 253 252 253 243 240 238 238 241 246 251 223 222 206 201 196 196 195 193 191 189 189 193 192 190 200 189 190 180 188 187 150 101 104 175 200 201 209 207 214 221 232 253 260 261 272 304
256 234 227 227 225 220 218 210 209 219 221 221 220 226 221 211 192 190 185 183 186 184 187 188 191 192 198 186 178 185 194 185 192 192 190 202 196 204 213 214 216 227 245 258 271 275 309 309 361
209 208 205 211 211 206 203 200 202 202 204 203 199 197 196 196 201 194 190 183 188 184 195 206 189 190 185 168 189 186 185 191 184 106 208 206 213 218 218 226 249 262 266 272 307 331 368 358 439
197 199 202 202 196 198 195 194 204 208 207 207 202 200 198 193 187 187 194 198 208 204 187 190 187 188 191 189 189 184 177 191 203 201 204 208 215 238 249 271 268 258 289 316 360 383 452 504 469
199 196 193 191 197 208 208 202 200 196 188 189 199 195 205 207 216 218 207 198 196 196 178 184 195 198 187 191 189 184 197 202 203 206 216 217 241 256 264 284 262 313 367 373 449 445 454 481 466
203 203 194 201 200 196 194 203 197 190 198 205 214 210 212 210 209 206 202 197 171 173 183 182 191 101 193 182 192 194 200 204 206 215 229 247 257 269 260 308 311 363 440 431 436 445 427 415 420

GFSSGP_2pvu_pres_009.txt.gz
Presure
109 125 111 125 123 135 128 132 127 96 117 115 174 160 112 110 134 122 124 117 105 111 113 125 122 120 114 127 121 135 130 113 121 147 113 134 129 162 125 120 189 125 200 200 178 181 193 168 227
123 119 119 123 147 121 113 133 102 107 104 138 106 105 103 103 97 157 141 119 131 135 126 121 124 118 122 141 128 157 124 121 144 112 130 129 113 124 168 173 141 146 194 177 187 181 196 208 197
130 112 131 140 124 127 119 131 153 108 127 179 102 143 122 159 116 147 157 131 136 123 117 134 123 131 166 127 158 137 107 116 143 147 137 124 117 145 126 165 167 175 194 184 175 182 170 218 206
121 116 115 174 125 118 168 186 145 124 124 177 139 173 136 175 177 168 118 122 121 173 117 138 117 149 128 172 127 116 116 117 144 127 118 135 175 125 190 159 186 177 187 182 206 179 216 214 210
124 128 117 143 119 134 131 184 159 127 103 147 160 156 134 121 125 149 132 179 175 165 122 159 157 127 146 180 118 140 113 132 142 124 134 174 127 173 206 178 184 183 185 174 183 215 202 209 211
137 131 146 169 184 165 167 162 163 114 134 118 158 193 150 124 175 199 162 173 142 139 132 112 125 174 127 130 139 116 134 169 124 163 172 125 155 189 201 194 182 170 182 186 231 210 202 214 215
110 140 240 234 188 109 109 115 114 114 111 96 100 120 175 175 128 121 121 123 120 120 124 127 139 131 125 133 164 140 132 126 174 169 127 175 180 172 193 183 187 189 183 220 208 200 202 211 215
132 134 115 116 224 131 176 143 122 114 112 92 185 131 182 189 126 128 173 116 118 178 121 176 128 128 167 180 183 126 125 183 175 124 176 176 187 128 191 172 182 225 226 214 210 192 192 214 209
201 142 190 206 201 129 127 123 177 161 149 117 131 113 128 136 136 165 119 125 142 121 147 141 155 184 193 171 125 126 175 157 127 138 181 132 188 187 182 194 189 230 213 204 218 194 212 221 202
130 174 129 162 222 161 171 119 117 124 131 114 140 128 170 109 115 123 132 121 132 182 124 122 121 152 178 123 153 171 126 128 127 179 217 197 179 189 201 201 210 224 213 206 209 187 228 209 203
235 240 141 107 226 112 130 111 124 205 159 121 196 177 198 201 193 164 125 130 132 119 125 127 147 186 178 128 186 129 166 174 175 164 179 185 189 216 228 184 214 198 217 204 199 188 202 203 176
241 233 135 220 213 118 188 142 132 204 155 188 202 157 105 132 133 189 180 139 121 130 134 184 178 120 169 129 138 135 168 134 174 184 189 194 245 173 214 232 213 220 209 200 192 184 199 184 188
123 249 238 186 171 212 131 103 224 196 130 168 114 110 130 160 156 169 147 119 135 140 177 157 126 127 133 160 180 139 152 187 195 176 204 222 209 219 219 214 208 198 193 186 189 206 185 185 181
237 239 161 160 150 195 209 217 168 235 232 211 125 127 128 192 171 162 153 198 179 193 130 129 129 150 188 158 135 208 226 234 195 224 223 213 213 214 204 195 201 195 192 200 201 193 181 181 182
238 149 238 239 141 150 220 156 140 133 133 136 221 224 226 222 139 205 196 195 189 128 130 176 199 200 132 142 152 221 193 232 231 183 215 206 216 202 208 198 194 201 211 210 181 179 183 179 184
220 231 119 123 126 122 118 121 130 208 224 206 207 228 223 221 221 216 212 195 134 130 220 151 223 131 208 201 214 228 220 196 206 212 203 228 217 226 198 204 207 213 205 191 187 185 189 189 193
118 118 118 120 117 123 125 154 217 212 208 208 216 215 219 210 221 165 163 131 199 200 173 131 186 186 218 216 207 211 209 205 207 212 219 192 204 201 194 197 204 190 198 182 182 187 190 192 185
150 124 122 119 134 146 157 143 236 236 232 229 230 226 229 240 229 219 221 242 135 132 136 236 173 210 209 206 210 203 203 217 211 213 200 208 195 194 201 207 195 184 184 184 188 182 192 191 190
125 125 224 224 219 218 218 222 220 220 221 221 221 221 245 128 241 235 247 229 127 172 135 214 209 204 206 202 206 218 211 223 202 189 192 197 207 200 197 190 196 202 195 193 193 192 186 194 198
223 225 226 227 222 221 222 226 225 239 241 237 236 182 233 156 223 223 155 129 157 218 215 222 213 213 213 214 218 210 201 191 182 195 201 190 195 196 196 189 194 196 200 195 198 201 197 199 199
222 222 223 223 227 235 240 235 233 229 153 218 179 138 143 140 134 158 203 220 216 213 239 235 220 216 211 210 198 187 186 191 201 191 194 186 198 196 190 185 199 198 201 199 202 206 209 213 216
228 230 231 228 226 225 225 221 219 224 191 216 141 139 146 133 199 214 220 221 224 217 215 206 219 206 210 190 187 190 196 191 194 194 188 203 189 186 194 197 111 104 130 202 207 210 212 217 219
222 224 232 244 239 258 232 220 134 164 204 201 218 223 228 230 225 228 224 240 237 223 212 215 200 192 191 186 192 193 194 196 196 197 199 193 193 192 190 98 204 203 200 215 210 208 217 228 231
221 219 218 220 222 223 216 222 217 218 216 218 220 224 237 248 253 249 243 227 215 212 212 205 198 193 193 195 194 192 195 198 202 192 189 193 201 203 202 195 196 200 211 212 214 221 244 257 266
230 237 251 253 259 266 142 246 233 231 231 215 225 227 224 219 216 210 212 202 200 201 200 198 196 193 188 191 193 204 156 191 189 187 196 190 198 192 193 198 204 213 207 216 232 256 267 283 276
267 233 231 228 224 222 222 219 214 209 206 207 199 196 198 190 191 195 202 203 193 191 190 191 189 188 204 213 196 200 180 193 195 199 185 188 187 196 195 210 214 216 251 260 273 279 282 287 320
221 219 215 209 205 204 204 203 196 197 196 191 200 205 202 202 193 183 187 189 190 193 200 207 206 202 194 195 182 183 187 189 181 184 187 184 196 208 213 215 253 264 271 289 274 289 327 340 394
207 199 197 202 200 198 198 199 204 207 206 204 200 193 190 193 201 209 211 211 208 211 210 207 206 164 173 184 194 191 187 183 190 190 195 207 213 210 223 256 268 269 271 267 312 343 454 436 445
198 191 199 205 202 188 192 200 199 196 196 196 195 192 199 190 200 195 187 182 184 201 200 203 199 197 196 193 189 182 186 191 198 205 209 205 223 240 250 273 270 268 271 331 446 441 436 443 430
198 193 203 201 206 199 192 198 193 195 202 200 198 202 192 201 200 197 194 173 205 213 203 201 198 193 188 184 184 192 196 199 204 216 230 246 239 265 267 272 265 279 361 460 446 457 431 433 436

GFSSGP_2pvu_pres_015.txt.gz
Presure
124 107 105 128 110 109 131 117 116 115 105 106 117 124 125 108 83 133 128 129 129 90 160 123 160 163 119 124 164 152 133 170 181 179 129 185 156 122 135 188 129 156 132 136 120 192 143 135 131
117 105 123 110 114 164 108 110 108 118 115 99 112 125 114 121 125 137 143 151 115 161 160 170 178 130 169 181 185 190 162 172 160 170 187 127 170 157 207 119 181 159 134 117 123 165 199 123 125
118 116 96 95 103 122 107 121 114 128 119 113 124 136 117 124 139 133 120 120 154 171 168 138 126 126 123 119 126 126 132 198 159 130 127 134 124 124 133 131 114 140 149 121 202 207 124 147 182
132 154 107 134 116 129 138 137 122 134 116 113 123 118 139 135 137 120 167 164 113 112 116 115 108 112 161 127 189 154 124 127 115 138 172 132 142 126 130 123 198 211 124 154 193 135 128 212 132
134 125 134 112 122 130 110 122 132 123 129 135 135 127 133 139 124 139 169 114 110 111 107 107 127 183 137 163 201 124 180 118 164 151 149 188 126 129 142 151 169 124 149 201 165 144 199 136 219
147 135 130 130 131 119 135 138 122 132 129 121 120 129 114 122 112 180 109 109 138 101 115 172 166 180 152 154 185 157 121 177 166 129 157 123 124 192 134 159 125 199 162 143 209 196 136 227 202
132 128 141 126 125 149 131 134 129 127 128 140 133 123 125 111 146 116 133 134 191 138 145 117 119 165 178 171 118 174 136 127 130 161 120 123 134 136 129 147 196 131 134 211 150 136 219 213 233
124 131 124 128 135 132 130 130 123 116 118 142 132 118 136 118 181 157 144 185 121 120 103 100 118 169 118 129 128 123 130 142 123 123 126 129 207 178 128 181 172 131 212 135 204 226 232 234 182
135 132 136 140 133 141 132 131 140 134 127 132 150 127 143 162 195 131 117 179 115 97 171 195 128 109 141 221 187 195 200 198 187 122 131 190 193 150 217 164 182 190 132 201 225 222 214 201 213
123 139 142 138 134 139 134 131 118 125 129 134 127 206 161 213 201 205 116 124 103 130 205 124 166 171 193 195 195 176 172 194 143 164 193 193 175 203 207 213 195 133 221 216 228 215 192 231 219
140 127 131 235 152 132 135 144 133 163 232 212 222 220 243 156 109 189 193 138 189 121 201 186 174 174 192 126 129 128 190 123 180 189 203 187 127 128 203 161 134 166 203 225 211 219 217 208 204
154 132 245 143 140 139 132 136 241 243 231 224 213 167 163 206 229 130 159 189 124 134 121 134 136 187 212 206 185 139 191 186 201 187 202 126 138 199 230 142 191 242 223 196 218 218 224 208 204
171 233 136 170 143 140 141 233 240 250 230 133 186 191 164 219 168 175 126 167 197 192 186 194 192 189 193 203 194 193 201 195 204 207 162 222 158 201 216 236 227 200 216 209 223 214 198 198 198
211 228 175 129 147 235 237 243 232 235 233 244 221 238 231 218 165 184 130 113 202 194 198 168 202 198 197 217 195 215 225 222 200 212 225 135 131 210 182 211 223 223 214 221 205 194 195 195 199
145 243 206 134 239 245 238 235 235 229 225 158 229 225 219 122 115 119 125 122 126 211 204 204 206 191 208 220 199 210 215 255 217 139 143 163 227 231 220 216 220 217 216 196 191 193 188 194 194
242 239 235 238 234 162 241 242 225 224 221 219 218 198 113 125 123 123 118 200 204 200 198 217 214 203 222 208 243 237 225 223 136 134 234 216 213 209 212 210 208 220 196 190 192 193 193 192 190
229 240 236 233 236 231 229 230 231 233 238 169 115 117 194 205 160 143 203 207 220 219 210 209 204 214 234 206 204 207 142 185 213 217 208 203 205 211 208 219 220 203 190 192 192 186 190 191 196
232 229 234 236 227 230 227 228 229 229 117 119 228 225 230 213 216 218 223 220 221 221 222 219 214 230 224 242 151 161 214 218 210 203 205 210 207 203 228 199 191 192 191 190 191 193 197 194 191
127 223 226 229 230 229 228 226 225 223 224 226 228 227 224 223 222 222 221 218 217 244 211 227 226 216 215 149 217 217 203 206 215 217 225 210 205 205 191 197 196 193 192 194 194 200 210 183 192
148 157 206 133 217 219 219 218 219 221 220 219 221 219 215 214 214 215 218 219 223 224 215 219 204 221 212 209 211 222 221 224 221 213 209 204 201 200 196 196 195 195 197 195 212 186 191 214 203
116 125 216 217 217 217 220 217 215 216 219 219 216 216 219 231 236 227 221 231 227 174 217 216 219 224 231 236 238 214 204 198 196 195 190 189 193 193 198 202 205 209 199 189 199 198 201 195 195
127 215 219 220 217 212 211 211 214 217 219 226 230 228 217 214 224 221 218 217 224 235 240 228 219 208 200 200 201 195 192 193 196 201 204 206 208 210 212 204 203 206 203 204 198 194 202 205 212
209 204 217 215 209 192 124 227 231 233 227 243 236 225 218 215 228 234 226 220 210 202 197 199 204 200 192 195 211 210 208 205 203 201 212 211 212 214 209 205 203 196 194 200 205 204 213 203 213
109 217 221 125 128 122 165 219 231 221 215 218 223 234 228 220 214 207 203 202 202 201 204 205 193 198 202 202 204 204 206 202 192 197 193 197 194 205 208 200 192 193 204 209 207 210 221 244 261
122 225 219 217 224 222 233 242 250 257 238 229 218 209 202 196 198 198 194 203 203 201 203 201 202 200 194 199 197 188 193 197 197 200 195 200 207 198 189 192 202 203 204 216 213 233 253 265 269
234 208 213 265 245 234 228 219 213 206 204 201 199 196 191 192 204 200 199 203 201 203 204 203 196 189 197 243 242 243 240 240 227 207 207 197 193 195 199 206 212 213 204 210 238 269 270 256 304
227 242 142 226 219 213 206 202 202 197 198 191 190 199 203 192 197 192 199 200 191 191 195 200 240 239 236 233 235 230 221 212 200 187 196 205 203 202 202 204 215 221 210 253 272 273 294 303 315
127 135 220 213 204 195 190 193 196 198 196 194 199 191 199 195 200 197 188 187 202 212 223 229 239 233 237 234 217 202 200 191 176 188 204 201 194 198 205 217 215 222 255 261 254 279 293 320 390
211 202 203 199 194 191 201 204 204 202 198 195 197 188 193 185 188 188 182 213 209 216 217 220 222 242 222 209 203 200 178 184 180 198 198 200 196 214 219 242 249 259 246 258 271 286 318 459 465
202 198 196 192 185 201 195 191 195 196 190 197 191 188 189 190 202 205 206 199 209 205 211 211 218 218 211 204 197 193 179 194 193 196 196 199 209 214 252 251 267 262 244 263 283 322 485 459 414